Location: Allos
(44.2333°N, 6.6333°E)
Time: 15:35:28
(UTC+00:00)

Envisat - Visible Passes

Search period start: 08 March 2021 00:00
Search period end: 18 March 2021 00:00
Orbit: 764 x 766 km, 98.1° (Epoch: 07 March)

Date Brightness Start Highest point End Pass type
(mag) Time Alt. Az. Time Alt. Az. Time Alt. Az.
08 Mar 3.2 05:14:45 10° NNE 05:19:52 79° ESE 05:24:57 10° S visible
09 Mar 4.7 04:38:14 10° NNE 04:42:56 36° E 04:47:35 10° SSE visible
10 Mar 5.9 04:02:30 10° NE 04:05:47 17° E 04:09:03 10° SE visible
11 Mar 3.6 05:03:22 10° NNE 05:08:25 63° E 05:13:27 10° S visible
11 Mar 6.8 18:03:07 10° W 18:04:08 11° W 18:05:09 10° WNW visible
12 Mar 5.1 04:27:01 10° NE 04:31:25 29° E 04:35:48 10° SSE visible
13 Mar 6.1 03:51:46 10° ENE 03:54:13 13° E 03:56:39 10° ESE visible
14 Mar 4.1 04:52:01 10° NNE 04:56:57 49° E 05:01:52 10° S visible
15 Mar 5.5 04:15:52 10° NE 04:19:54 23° E 04:23:54 10° SE visible
16 Mar 6.4 03:41:56 10° ENE 03:42:38 10° E 03:43:19 10° E visible
16 Mar 3.1 05:17:17 10° NNE 05:22:24 85° ESE 05:27:29 10° SSW visible
17 Mar 4.6 04:40:43 10° NNE 04:45:28 39° E 04:50:13 10° SSE visible
